IVARAZ6 Weather Reports


time (UTC)temp
C
wind
direction
speed
KPH
gust
KPH
rain 1hr
cm
rain 24hr
cm
rain mn
cm
humidity
%
barometer
mb
20260506234121 17 252 3.2 4.8 0.00 0.99 0.00 85 1008.6
20260506233621 17 295 4.8 4.8 0.00 0.99 0.00 85 1008.7
20260506233121 17 321 0.0 4.8 0.00 0.99 0.00 85 1008.7
20260506232621 17 272 0.0 6.4 0.00 0.99 0.00 85 1008.7
20260506232118 17 238 6.4 11.3 0.00 0.99 0.00 85 1008.7
20260506231627 17 235 3.2 9.7 0.00 0.99 0.00 85 1008.8
20260506231121 17 219 3.2 6.4 0.00 0.99 0.00 85 1008.7
20260506230618 17 252 3.2 6.4 0.00 0.99 0.00 85 1008.8
20260506230121 17 120 3.2 11.3 0.00 0.99 0.00 85 1008.6
20260506225618 17 221 3.2 8.0 0.00 0.99 0.00 85 1008.6
20260506225121 17 231 4.8 8.0 0.00 0.99 0.00 85 1008.6
20260506224624 17 259 1.6 4.8 0.00 0.99 0.00 85 1008.6
20260506224118 17 312 1.6 4.8 0.00 0.99 0.00 84 1008.6
20260506223618 17 238 3.2 11.3 0.00 0.99 0.00 84 1008.5
20260506223118 17 202 11.3 12.9 0.00 0.99 0.00 85 1008.5
20260506222618 17 222 3.2 8.0 0.00 0.99 0.00 84 1008.5
20260506222118 17 213 8.0 11.3 0.00 0.99 0.00 84 1008.6
20260506221618 17 243 4.8 12.9 0.00 0.99 0.00 84 1008.7
20260506221121 17 191 4.8 14.5 0.00 0.99 0.00 84 1008.8
20260506220621 17 172 3.2 11.3 0.00 0.99 0.00 84 1008.6
20260506220121 17 184 6.4 16.1 0.00 0.99 0.00 84 1008.7
20260506215618 17 239 8.0 12.9 0.00 0.99 0.00 84 1008.6
20260506215121 17 167 9.7 14.5 0.00 0.99 0.00 84 1008.7
20260506214618 17 188 11.3 12.9 0.00 0.99 0.00 84 1008.7
20260506214119 17 209 4.8 16.1 0.00 0.99 0.00 83 1008.8
20260506213621 17 219 8.0 17.7 0.00 0.99 0.00 83 1008.7
20260506213121 17 173 14.5 17.7 0.00 0.99 0.00 83 1008.7
20260506212621 17 223 8.0 16.1 0.00 0.99 0.00 83 1008.7
20260506212124 17 167 17.7 17.7 0.00 0.99 0.00 83 1008.8
20260506211621 17 219 4.8 14.5 0.00 0.99 0.00 83 1008.8
20260506211121 17 189 11.3 16.1 0.00 0.99 0.00 83 1008.8
20260506210624 17 214 6.4 16.1 0.00 0.99 0.00 82 1008.7
20260506210121 17 202 8.0 14.5 0.00 0.99 0.00 82 1008.7
20260506205621 17 180 4.8 14.5 0.00 0.99 0.00 82 1008.7
20260506205124 17 170 9.7 14.5 0.00 0.99 0.00 81 1008.7
20260506204618 17 242 8.0 12.9 0.00 0.99 0.00 82 1008.6
20260506204121 17 212 3.2 12.9 0.00 0.99 0.00 81 1008.6
20260506203625 17 260 3.2 11.3 0.00 0.99 0.00 81 1008.6
20260506203121 17 235 4.8 11.3 0.00 0.99 0.00 81 1008.5
20260506202618 17 187 4.8 19.3 0.00 0.99 0.00 81 1008.4
20260506202118 17 205 8.0 12.9 0.00 0.99 0.00 81 1008.4
20260506201621 17 231 3.2 9.7 0.00 0.99 0.00 82 1008.4
20260506201121 17 216 4.8 14.5 0.00 0.99 0.00 81 1008.3
20260506200621 17 218 4.8 9.7 0.00 0.99 0.00 81 1008.3
20260506200121 17 188 3.2 12.9 0.00 0.99 0.00 81 1008.3
20260506195621 17 184 4.8 14.5 0.00 0.99 0.00 81 1008.2
20260506195121 17 199 3.2 16.1 0.00 0.99 0.00 81 1008.1
20260506194624 17 188 6.4 14.5 0.00 0.99 0.00 81 1008.0
20260506194121 17 227 8.0 16.1 0.00 0.99 0.00 81 1008.0
20260506193618 17 186 3.2 14.5 0.00 0.99 0.00 81 1007.9
20260506193121 17 234 4.8 16.1 0.00 0.99 0.00 81 1007.7
20260506192621 17 179 9.7 16.1 0.00 0.99 0.00 81 1007.6
20260506192121 17 254 4.8 11.3 0.00 0.99 0.00 81 1007.5
20260506191624 17 259 1.6 8.0 0.00 0.99 0.00 81 1007.5
20260506191118 17 313 3.2 4.8 0.00 0.99 0.00 81 1007.5
20260506190621 17 312 1.6 6.4 0.00 0.99 0.00 81 1007.4
20260506190121 17 155 1.6 8.0 0.00 0.99 0.00 81 1007.3
20260506185618 17 355 3.2 8.0 0.00 0.99 0.00 81 1007.4
20260506185124 17 248 1.6 9.7 0.00 0.99 0.00 81 1007.3
20260506184621 17 204 8.0 6.4 0.00 0.99 0.00 81 1007.2
20260506184121 17 316 3.2 6.4 0.00 0.99 0.00 82 1007.2
20260506183618 17 236 3.2 9.7 0.00 0.99 0.00 81 1007.1
20260506183127 17 88 1.6 12.9 0.00 0.99 0.00 82 1007.0
20260506182618 17 211 11.3 16.1 0.00 0.99 0.00 81 1007.1
20260506182118 17 181 9.7 17.7 0.00 0.99 0.00 82 1007.1
20260506181621 17 206 4.8 17.7 0.00 0.99 0.00 82 1006.9
20260506181118 17 204 12.9 19.3 0.00 0.99 0.00 82 1006.9
20260506180618 17 213 9.7 16.1 0.00 0.99 0.00 82 1006.9
20260506180121 17 196 6.4 17.7 0.00 0.99 0.00 81 1006.8
20260506175621 17 161 14.5 17.7 0.00 0.99 0.00 82 1006.6
20260506175124 17 206 16.1 16.1 0.00 0.99 0.00 82 1006.5
20260506174627 17 302 3.2 14.5 0.00 0.99 0.00 82 1006.5
20260506174124 17 264 4.8 19.3 0.00 0.99 0.00 81 1006.5
20260506173624 17 219 8.0 9.7 0.00 0.99 0.00 81 1006.6
20260506173121 17 260 4.8 12.9 0.00 0.99 0.00 81 1006.6
20260506172618 17 258 6.4 12.9 0.00 0.99 0.00 80 1006.6
20260506172118 17 230 12.9 12.9 0.00 0.99 0.00 80 1006.6
20260506171618 17 295 4.8 14.5 0.00 0.99 0.00 81 1006.6
20260506171121 17 290 8.0 11.3 0.00 0.99 0.00 81 1006.5
20260506170618 17 250 11.3 12.9 0.00 0.99 0.00 81 1006.5
20260506170127 17 304 6.4 14.5 0.00 0.99 0.00 82 1006.4
20260506165624 17 317 6.4 9.7 0.00 0.99 0.00 83 1006.4
20260506165124 17 313 4.8 6.4 0.00 0.99 0.00 83 1006.4
20260506164618 17 0 1.6 11.3 0.00 0.99 0.00 83 1006.5
20260506164124 17 263 9.7 12.9 0.00 0.99 0.00 83 1006.4
20260506163618 17 257 4.8 9.7 0.00 0.99 0.00 84 1006.4
20260506163118 17 330 1.6 8.0 0.00 0.99 0.00 84 1006.4
20260506162621 17 314 4.8 11.3 0.00 0.99 0.00 84 1006.4
20260506162124 17 22 6.4 12.9 0.00 0.99 0.00 84 1006.3
20260506161618 17 279 4.8 11.3 0.00 0.99 0.00 84 1006.3
20260506161121 17 304 11.3 11.3 0.00 0.99 0.00 83 1006.4
20260506160621 17 243 6.4 12.9 0.00 0.99 0.00 82 1006.4
20260506160118 17 326 6.4 14.5 0.00 0.99 0.00 81 1006.5
20260506155618 17 262 3.2 12.9 0.00 0.99 0.00 81 1006.5
20260506155118 17 282 6.4 12.9 0.00 0.99 0.00 80 1006.4
20260506154624 17 241 6.4 12.9 0.00 0.99 0.00 80 1006.3
20260506154118 17 252 8.0 17.7 0.00 0.99 0.00 80 1006.3
20260506153618 18 193 16.1 17.7 0.00 0.99 0.00 79 1006.3
20260506153121 18 213 14.5 17.7 0.00 0.99 0.00 79 1006.3
20260506152624 18 238 3.2 11.3 0.00 0.99 0.00 79 1006.4
20260506152119 18 220 8.0 20.9 0.00 0.99 0.00 79 1006.4
20260506151621 18 227 8.0 19.3 0.00 0.99 0.00 79 1006.4
20260506151121 18 198 14.5 19.3 0.00 0.99 0.00 78 1006.4
20260506150618 18 174 12.9 22.5 0.00 0.99 0.00 79 1006.4
20260506150118 18 207 14.5 24.1 0.00 0.99 0.00 79 1006.4
20260506145618 18 187 16.1 19.3 0.00 0.99 0.00 79 1006.4
20260506145121 18 212 8.0 20.9 0.00 0.99 0.00 77 1006.4
20260506144618 18 205 6.4 19.3 0.00 0.99 0.00 78 1006.4
20260506144118 18 196 9.7 17.7 0.00 0.99 0.00 77 1006.5
20260506143618 18 202 11.3 17.7 0.00 0.99 0.00 77 1006.4
20260506143118 18 238 9.7 17.7 0.00 0.99 0.00 78 1006.5
20260506142618 18 218 12.9 20.9 0.00 0.99 0.00 77 1006.4
20260506142118 18 175 16.1 22.5 0.00 0.99 0.00 78 1006.4
20260506141618 18 227 11.3 17.7 0.00 0.99 0.00 78 1006.4
20260506141121 18 216 11.3 20.9 0.00 0.99 0.00 80 1006.5
20260506140624 18 185 11.3 20.9 0.00 0.99 0.00 80 1006.5
20260506140118 18 228 6.4 19.3 0.00 0.99 0.00 81 1006.5
20260506135621 18 197 9.7 17.7 0.00 0.99 0.00 82 1006.5
20260506135118 18 207 11.3 20.9 0.00 0.99 0.00 80 1006.5
20260506134618 18 200 11.3 17.7 0.00 0.99 0.00 80 1006.5
20260506134124 18 198 11.3 22.5 0.00 0.99 0.00 79 1006.6
20260506133621 18 178 9.7 20.9 0.00 0.99 0.00 81 1006.6
20260506133118 18 173 3.2 17.7 0.00 0.99 0.00 79 1006.7
20260506132618 18 202 6.4 19.3 0.00 0.99 0.00 80 1006.7
20260506132121 18 211 16.1 22.5 0.00 0.99 0.00 80 1006.6
20260506131621 18 192 17.7 17.7 0.00 0.99 0.00 81 1006.7
20260506131121 18 178 8.0 19.3 0.00 0.99 0.00 81 1006.8
20260506130618 18 232 12.9 27.4 0.00 0.99 0.00 82 1006.8
20260506130121 18 229 17.7 20.9 0.00 0.99 0.00 81 1006.8
20260506125621 18 217 20.9 20.9 0.00 0.99 0.00 80 1006.8
20260506125121 18 248 6.4 19.3 0.00 0.99 0.00 79 1006.9
20260506124621 18 217 4.8 22.5 0.00 0.99 0.00 79 1006.7
20260506124118 18 208 12.9 16.1 0.00 0.99 0.00 80 1006.6
20260506123618 18 146 4.8 17.7 0.00 0.99 0.00 78 1006.5
20260506123121 18 205 1.6 16.1 0.00 0.99 0.00 78 1006.5
20260506122624 18 234 3.2 19.3 0.00 0.99 0.00 78 1006.5
20260506122118 18 207 6.4 19.3 0.00 0.99 0.00 80 1006.5
20260506121621 17 214 6.4 14.5 0.00 0.99 0.00 82 1006.5
20260506121118 17 175 11.3 14.5 0.00 0.99 0.00 83 1006.6
20260506120621 17 180 6.4 12.9 0.00 0.99 0.00 82 1006.5
20260506120118 17 188 9.7 16.1 0.00 0.99 0.00 82 1006.6
20260506115618 17 257 11.3 12.9 0.00 0.99 0.00 83 1006.5
20260506115118 17 261 4.8 11.3 0.00 0.99 0.00 83 1006.5
20260506114624 17 205 3.2 12.9 0.00 0.99 0.00 82 1006.5
20260506114121 17 159 9.7 9.7 0.00 0.99 0.00 82 1006.5
20260506113618 17 193 4.8 16.1 0.00 0.99 0.00 83 1006.5
20260506113121 17 208 4.8 17.7 0.00 0.99 0.00 82 1006.5
20260506112618 17 184 8.0 16.1 0.00 0.99 0.00 83 1006.5
20260506112118 17 212 11.3 11.3 0.00 0.99 0.00 83 1006.5
20260506111621 17 175 3.2 12.9 0.00 0.99 0.00 83 1006.5
20260506111124 17 215 6.4 14.5 0.00 0.99 0.00 84 1006.4
20260506110621 17 220 3.2 11.3 0.00 0.99 0.00 83 1006.4
20260506110118 17 205 1.6 4.8 0.00 0.99 0.00 83 1006.4
20260506105624 17 171 1.6 8.0 0.00 0.99 0.00 82 1006.4
20260506105118 17 105 3.2 6.4 0.00 0.99 0.00 82 1006.4
20260506104618 18 97 3.2 6.4 0.00 0.99 0.00 81 1006.5
20260506104118 17 227 0.0 4.8 0.00 0.99 0.00 82 1006.4
20260506103618 17 207 3.2 6.4 0.00 0.99 0.00 82 1006.5
20260506103118 17 65 0.0 3.2 0.00 0.99 0.00 82 1006.4
20260506102621 17 167 0.0 8.0 0.00 0.99 0.00 81 1006.4
20260506102127 17 165 3.2 6.4 0.00 0.99 0.00 82 1006.3
20260506101624 17 51 0.0 3.2 0.00 0.99 0.00 82 1006.3
20260506101121 17 65 3.2 3.2 0.00 0.99 0.00 83 1006.3
20260506100618 17 55 0.0 4.8 0.00 0.99 0.00 81 1006.3
20260506100124 17 65 3.2 6.4 0.00 0.99 0.00 81 1006.3
20260506095627 17 254 6.4 6.4 0.00 0.99 0.00 81 1006.3
20260506095118 17 94 3.2 8.0 0.00 0.99 0.00 80 1006.3
20260506094627 18 74 4.8 9.7 0.00 0.99 0.00 78 1006.2
20260506094121 18 228 4.8 8.0 0.00 0.99 0.00 78 1006.2
20260506093618 18 73 4.8 6.4 0.00 0.99 0.00 77 1006.2
20260506093118 18 184 0.0 6.4 0.00 0.99 0.00 76 1006.2
20260506092624 18 180 1.6 4.8 0.00 0.99 0.00 77 1006.1
20260506092127 18 232 3.2 9.7 0.00 0.99 0.00 77 1006.1
20260506091624 18 211 4.8 6.4 0.00 0.99 0.00 77 1006.1
20260506091118 18 277 4.8 8.0 0.00 0.99 0.00 76 1006.0
20260506090624 18 172 1.6 3.2 0.00 0.99 0.00 76 1006.0
20260506090118 18 192 1.6 9.7 0.00 0.99 0.00 76 1005.9
20260506085618 18 200 4.8 8.0 0.00 0.99 0.00 77 1005.9
20260506085118 18 212 4.8 8.0 0.00 0.99 0.00 77 1005.9
20260506084621 18 190 4.8 8.0 0.00 0.99 0.00 76 1005.8
20260506084118 18 173 1.6 8.0 0.00 0.99 0.00 76 1005.8
20260506083618 18 154 6.4 8.0 0.00 0.99 0.00 76 1005.7
20260506083118 18 268 0.0 4.8 0.00 0.99 0.00 77 1005.7
20260506082618 18 179 1.6 8.0 0.00 0.99 0.00 77 1005.7
20260506082118 18 192 6.4 8.0 0.00 0.99 0.00 77 1005.6
20260506081618 18 163 1.6 8.0 0.00 0.99 0.00 77 1005.5
20260506081118 18 221 3.2 4.8 0.00 0.99 0.00 79 1005.5
20260506080621 17 107 1.6 4.8 0.00 0.99 0.00 79 1005.5
20260506080124 17 310 0.0 4.8 0.00 0.99 0.00 80 1005.6
20260506073121 16 16 0.0 3.2 0.00 0.99 0.00 91 1005.6
20260506072618 16 17 0.0 1.6 0.00 0.99 0.00 93 1005.7
20260506072127 16 16 0.0 1.6 0.00 0.97 0.00 94 1005.5
20260506071618 15 16 0.0 1.6 0.00 0.97 0.00 94 1005.5
20260506071118 15 16 0.0 0.0 0.00 0.97 0.00 95 1005.4
20260506070618 15 16 0.0 3.2 0.00 0.97 0.00 95 1005.3
20260506070118 15 16 1.6 3.2 0.00 0.97 0.00 94 1005.2
20260506062118 14 39 0.0 9.7 0.28 0.97 0.00 93 1004.3
20260506061621 14 40 8.0 11.3 0.36 0.97 0.00 93 1004.2
20260506061118 14 350 1.6 6.4 0.38 0.97 0.00 93 1004.3
20260506060618 14 32 4.8 6.4 0.46 0.97 0.00 94 1004.4
20260506060121 13 80 6.4 16.1 0.46 0.97 0.00 94 1004.2
20260506051118 14 265 1.6 8.0 0.05 0.58 0.00 94 1005.8
20260506050618 14 55 0.0 0.0 0.00 0.53 0.00 94 1005.7
20260506050118 14 55 0.0 3.2 0.00 0.56 0.00 93 1005.5
20260506045121 14 13 3.2 6.4 0.00 0.61 0.00 92 1005.1
20260506044624 14 22 1.6 8.0 0.00 0.66 0.00 93 1005.2
20260506044121 13 68 4.8 8.0 0.00 0.71 0.00 93 1005.3
20260506043618 13 36 6.4 6.4 0.00 0.74 0.00 93 1005.2
20260506043121 13 63 3.2 6.4 0.00 0.79 0.00 93 1005.2
20260506042618 13 49 0.0 3.2 0.00 0.81 0.00 93 1005.2
20260506042118 13 50 1.6 3.2 0.00 0.84 0.00 93 1005.3
20260506041621 13 51 1.6 4.8 0.00 0.94 0.00 93 1005.4
20260506041118 13 34 3.2 6.4 0.00 0.99 0.00 94 1005.3
20260506040621 13 38 1.6 4.8 0.00 1.04 0.00 94 1005.3
20260506040121 13 47 4.8 6.4 0.00 1.12 0.00 93 1005.5
20260506035618 14 38 3.2 6.4 0.00 1.19 0.00 93 1005.8
20260506035121 14 61 1.6 6.4 0.00 1.30 0.00 93 1006.1
20260506034618 14 36 3.2 6.4 0.00 1.45 0.00 93 1006.2
20260506034123 14 35 6.4 8.0 0.00 1.55 0.00 93 1006.2
20260506033621 14 40 1.6 8.0 0.00 1.63 0.00 94 1006.1
20260506033118 14 24 4.8 8.0 0.00 1.73 0.00 94 1006.1
20260506032624 14 22 4.8 8.0 0.00 1.83 0.00 94 1006.2
20260506032118 14 18 3.2 4.8 0.00 1.91 0.00 95 1006.0
20260506031621 14 351 3.2 6.4 0.00 2.01 0.00 95 1006.1
20260506031118 14 22 4.8 4.8 0.00 2.13 0.00 95 1006.2
20260506030618 14 28 3.2 6.4 0.00 2.21 0.00 95 1006.1
20260506030117 14 16 6.4 3.2 0.00 2.34 0.00 95 1006.0
20260506025618 15 254 0.0 3.2 0.03 2.44 0.00 95 1006.0
20260506025124 15 9 0.0 4.8 0.03 2.54 0.00 94 1006.0
20260506024617 15 274 0.0 4.8 0.05 2.72 0.00 95 1006.0
20260506024117 15 30 1.6 3.2 0.05 2.82 0.00 95 1006.1
20260506023620 15 30 3.2 4.8 0.08 2.90 0.00 94 1005.9
20260506023123 15 48 1.6 3.2 0.13 3.12 0.00 94 1005.8
20260506022620 15 212 0.0 4.8 0.20 3.28 0.00 94 1005.8
20260506022118 15 220 1.6 4.8 0.23 3.40 0.00 94 1005.9
20260506021621 15 233 3.2 4.8 0.25 3.51 0.00 94 1006.0
20260506021117 15 37 0.0 4.8 0.28 3.61 0.00 94 1006.1
20260506020623 15 24 3.2 11.3 0.28 3.68 0.00 94 1006.4
20260506020117 15 38 4.8 6.4 0.28 3.81 0.00 94 1006.7
20260506015621 15 67 4.8 12.9 0.28 3.89 0.00 94 1006.9
20260506015120 15 46 8.0 17.7 0.30 3.99 0.00 94 1007.0
20260506014623 15 66 9.7 11.3 0.33 4.06 0.00 94 1007.0
20260506014117 15 330 1.6 3.2 0.36 4.14 0.00 95 1007.1
20260506013620 15 71 3.2 6.4 0.33 4.19 0.00 94 1007.0
20260506013117 15 48 3.2 6.4 0.30 4.22 0.00 95 1007.2
20260506012617 14 61 3.2 6.4 0.25 4.19 0.00 95 1007.2
20260506012123 14 38 4.8 6.4 0.25 4.27 0.00 95 1007.4
20260506011618 14 25 3.2 6.4 0.23 4.42 0.00 94 1007.6
20260506011118 14 44 4.8 8.0 0.20 4.47 0.00 94 1007.6
20260506010617 14 38 6.4 8.0 0.20 4.50 0.00 94 1007.5
20260506010117 14 0 0.0 4.8 0.20 4.60 0.00 94 1007.2
20260506005618 14 22 1.6 6.4 0.18 4.60 0.00 94 1007.2
20260506005120 15 60 4.8 6.4 0.15 4.60 0.00 94 1007.3
20260506004623 15 21 4.8 6.4 0.10 4.62 0.00 94 1007.5
20260506004118 15 49 3.2 6.4 0.08 4.62 0.00 93 1007.5
20260506003620 15 40 4.8 8.0 0.08 4.67 0.00 93 1007.8
20260506003118 15 44 3.2 8.0 0.05 4.67 0.00 93 1008.1
20260506002617 15 50 4.8 6.4 0.03 4.67 0.00 92 1008.2
20260506002117 15 64 4.8 6.4 0.00 4.70 0.00 92 1008.1
20260506001621 15 11 3.2 4.8 0.00 4.75 0.00 91 1007.8
20260506001121 15 31 3.2 8.0 0.00 4.75 0.00 91 1007.5
20260506000618 15 67 4.8 6.4 0.00 4.78 0.00 90 1007.6
20260506000118 15 47 1.6 3.2 0.00 4.80 0.00 90 1007.7
20260505235618 15 46 0.0 4.8 0.00 4.88 0.00 90 1007.8
20260505235124 15 49 0.0 4.8 0.00 4.93 0.00 90 1007.9
20260505234620 15 47 3.2 4.8 0.00 5.08 0.00 90 1008.1